Data supplied by UK-AIR on 30/3/2010
All Data GMT hour ending 
Status: R =Ratified P=Provisional,P*=As supplied
,,Glazebury,,,,,,,,,,,,,,,,,,,,,,,
Date,time,"Nitric oxide",status,unit,"Nitrogen dioxide",status,unit,"Nitrogen oxides as nitrogen dioxide",status,unit,"Ozone",status,unit
 
01-01-2009,01:00,,,,,,,,,,,,
01-01-2009,02:00,,,,,,,,,,2,R,ugm-3
01-01-2009,03:00,8.6,R,ugm-3,39.0,R,ugm-3,52.1,R,ugm-3,2,R,ugm-3
01-01-2009,04:00,13.0,R,ugm-3,39.5,R,ugm-3,59.4,R,ugm-3,2,R,ugm-3
01-01-2009,05:00,12.1,R,ugm-3,35.1,R,ugm-3,53.7,R,ugm-3,2,R,ugm-3
01-01-2009,06:00,14.5,R,ugm-3,37.6,R,ugm-3,59.8,R,ugm-3,2,R,ugm-3
01-01-2009,07:00,17.4,R,ugm-3,35.7,R,ugm-3,62.3,R,ugm-3,2,R,ugm-3
01-01-2009,08:00,24.6,R,ugm-3,36.7,R,ugm-3,74.3,R,ugm-3,2,R,ugm-3
01-01-2009,09:00,39.5,R,ugm-3,37.6,R,ugm-3,98.0,R,ugm-3,2,R,ugm-3
01-01-2009,10:00,59.1,R,ugm-3,41.3,R,ugm-3,131.6,R,ugm-3,2,R,ugm-3
01-01-2009,11:00,72.3,R,ugm-3,47.0,R,ugm-3,157.4,R,ugm-3,4,R,ugm-3
01-01-2009,12:00,70.1,R,ugm-3,49.1,R,ugm-3,156.2,R,ugm-3,4,R,ugm-3
01-01-2009,13:00,68.3,R,ugm-3,53.3,R,ugm-3,157.6,R,ugm-3,4,R,ugm-3
01-01-2009,14:00,66.6,R,ugm-3,55.2,R,ugm-3,157.0,R,ugm-3,4,R,ugm-3
01-01-2009,15:00,52.6,R,ugm-3,46.0,R,ugm-3,126.4,R,ugm-3,4,R,ugm-3
01-01-2009,16:00,36.8,R,ugm-3,38.6,R,ugm-3,94.7,R,ugm-3,2,R,ugm-3
01-01-2009,17:00,37.4,R,ugm-3,40.9,R,ugm-3,98.0,R,ugm-3,2,R,ugm-3
01-01-2009,18:00,38.4,R,ugm-3,41.1,R,ugm-3,99.7,R,ugm-3,2,R,ugm-3
01-01-2009,19:00,43.0,R,ugm-3,40.5,R,ugm-3,106.2,R,ugm-3,2,R,ugm-3
01-01-2009,20:00,54.3,R,ugm-3,36.3,R,ugm-3,119.2,R,ugm-3,2,R,ugm-3
01-01-2009,21:00,58.6,R,ugm-3,36.7,R,ugm-3,126.3,R,ugm-3,2,R,ugm-3
01-01-2009,22:00,60.1,R,ugm-3,28.1,R,ugm-3,119.9,R,ugm-3,2,R,ugm-3
01-01-2009,23:00,60.4,R,ugm-3,26.9,R,ugm-3,119.2,R,ugm-3,2,R,ugm-3
01-01-2009,24:00,74.8,R,ugm-3,29.0,R,ugm-3,143.3,R,ugm-3,2,R,ugm-3
02-01-2009,01:00,89.3,R,ugm-3,35.0,R,ugm-3,171.3,R,ugm-3,0,R,ugm-3
02-01-2009,02:00,,,,,,,,,,0,R,ugm-3
02-01-2009,03:00,36.8,R,ugm-3,38.4,R,ugm-3,94.5,R,ugm-3,0,R,ugm-3
02-01-2009,04:00,59.0,R,ugm-3,35.7,R,ugm-3,125.9,R,ugm-3,0,R,ugm-3
02-01-2009,05:00,39.6,R,ugm-3,23.1,R,ugm-3,83.7,R,ugm-3,0,R,ugm-3
02-01-2009,06:00,49.3,R,ugm-3,22.2,R,ugm-3,97.4,R,ugm-3,6,R,ugm-3
02-01-2009,07:00,1.0,R,ugm-3,15.3,R,ugm-3,16.8,R,ugm-3,10,R,ugm-3
02-01-2009,08:00,1.5,R,ugm-3,16.4,R,ugm-3,18.7,R,ugm-3,10,R,ugm-3
02-01-2009,09:00,1.9,R,ugm-3,22.9,R,ugm-3,25.8,R,ugm-3,10,R,ugm-3
02-01-2009,10:00,4.8,R,ugm-3,22.9,R,ugm-3,30.2,R,ugm-3,10,R,ugm-3
02-01-2009,11:00,9.0,R,ugm-3,26.7,R,ugm-3,40.5,R,ugm-3,10,R,ugm-3
02-01-2009,12:00,6.6,R,ugm-3,23.1,R,ugm-3,33.2,R,ugm-3,16,R,ugm-3
02-01-2009,13:00,6.3,R,ugm-3,23.7,R,ugm-3,33.2,R,ugm-3,20,R,ugm-3
02-01-2009,14:00,5.0,R,ugm-3,24.8,R,ugm-3,32.5,R,ugm-3,18,R,ugm-3
02-01-2009,15:00,3.4,R,ugm-3,22.9,R,ugm-3,28.1,R,ugm-3,24,R,ugm-3
02-01-2009,16:00,2.8,R,ugm-3,23.5,R,ugm-3,27.7,R,ugm-3,22,R,ugm-3
02-01-2009,17:00,4.3,R,ugm-3,41.1,R,ugm-3,47.6,R,ugm-3,6,R,ugm-3
02-01-2009,18:00,6.0,R,ugm-3,47.4,R,ugm-3,56.5,R,ugm-3,0,R,ugm-3
02-01-2009,19:00,2.8,R,ugm-3,43.9,R,ugm-3,48.1,R,ugm-3,2,R,ugm-3
02-01-2009,20:00,3.4,R,ugm-3,42.4,R,ugm-3,47.6,R,ugm-3,2,R,ugm-3
02-01-2009,21:00,1.9,R,ugm-3,35.0,R,ugm-3,37.8,R,ugm-3,6,R,ugm-3
02-01-2009,22:00,2.3,R,ugm-3,37.2,R,ugm-3,40.7,R,ugm-3,4,R,ugm-3
02-01-2009,23:00,1.9,R,ugm-3,34.2,R,ugm-3,37.1,R,ugm-3,4,R,ugm-3
02-01-2009,24:00,2.1,R,ugm-3,34.4,R,ugm-3,37.6,R,ugm-3,4,R,ugm-3
03-01-2009,01:00,4.1,R,ugm-3,37.4,R,ugm-3,43.7,R,ugm-3,0,R,ugm-3
03-01-2009,02:00,,,,,,,,,,0,R,ugm-3
03-01-2009,03:00,8.9,R,ugm-3,40.5,R,ugm-3,54.1,R,ugm-3,0,R,ugm-3
03-01-2009,04:00,3.4,R,ugm-3,37.8,R,ugm-3,43.0,R,ugm-3,2,R,ugm-3
03-01-2009,05:00,2.4,R,ugm-3,38.2,R,ugm-3,41.8,R,ugm-3,2,R,ugm-3
03-01-2009,06:00,2.3,R,ugm-3,35.5,R,ugm-3,39.0,R,ugm-3,0,R,ugm-3
03-01-2009,07:00,1.5,R,ugm-3,35.0,R,ugm-3,37.2,R,ugm-3,0,R,ugm-3
03-01-2009,08:00,1.6,R,ugm-3,34.2,R,ugm-3,36.7,R,ugm-3,4,R,ugm-3
03-01-2009,09:00,1.0,R,ugm-3,14.3,R,ugm-3,15.9,R,ugm-3,36,R,ugm-3
03-01-2009,10:00,2.8,R,ugm-3,21.2,R,ugm-3,25.4,R,ugm-3,24,R,ugm-3
03-01-2009,11:00,5.9,R,ugm-3,30.8,R,ugm-3,39.7,R,ugm-3,12,R,ugm-3
03-01-2009,12:00,2.9,R,ugm-3,22.5,R,ugm-3,26.9,R,ugm-3,22,R,ugm-3
03-01-2009,13:00,8.4,R,ugm-3,35.7,R,ugm-3,48.5,R,ugm-3,12,R,ugm-3
03-01-2009,14:00,31.3,R,ugm-3,45.6,R,ugm-3,93.4,R,ugm-3,8,R,ugm-3
03-01-2009,15:00,0.9,R,ugm-3,13.0,R,ugm-3,14.3,R,ugm-3,40,R,ugm-3
03-01-2009,16:00,0.9,R,ugm-3,9.4,R,ugm-3,10.7,R,ugm-3,44,R,ugm-3
03-01-2009,17:00,0.9,R,ugm-3,8.8,R,ugm-3,10.1,R,ugm-3,44,R,ugm-3
03-01-2009,18:00,0.9,R,ugm-3,7.1,R,ugm-3,8.4,R,ugm-3,52,R,ugm-3
03-01-2009,19:00,0.9,R,ugm-3,10.7,R,ugm-3,12.0,R,ugm-3,48,R,ugm-3
03-01-2009,20:00,0.9,R,ugm-3,24.6,R,ugm-3,26.0,R,ugm-3,30,R,ugm-3
03-01-2009,21:00,8.1,R,ugm-3,60.5,R,ugm-3,73.0,R,ugm-3,2,R,ugm-3
03-01-2009,22:00,17.3,R,ugm-3,63.6,R,ugm-3,90.0,R,ugm-3,2,R,ugm-3
03-01-2009,23:00,3.4,R,ugm-3,51.2,R,ugm-3,56.3,R,ugm-3,4,R,ugm-3
03-01-2009,24:00,6.1,R,ugm-3,48.3,R,ugm-3,57.7,R,ugm-3,4,R,ugm-3
04-01-2009,01:00,0.0,R,ugm-3,39.2,R,ugm-3,39.2,R,ugm-3,10,R,ugm-3
04-01-2009,02:00,,,,,,,,,,10,R,ugm-3
04-01-2009,03:00,0.0,R,ugm-3,33.4,R,ugm-3,33.4,R,ugm-3,14,R,ugm-3
04-01-2009,04:00,0.0,R,ugm-3,32.5,R,ugm-3,32.5,R,ugm-3,14,R,ugm-3
04-01-2009,05:00,0.0,R,ugm-3,27.3,R,ugm-3,27.3,R,ugm-3,6,R,ugm-3
04-01-2009,06:00,0.0,R,ugm-3,17.0,R,ugm-3,17.0,R,ugm-3,24,R,ugm-3
04-01-2009,07:00,0.0,R,ugm-3,15.7,R,ugm-3,15.7,R,ugm-3,34,R,ugm-3
04-01-2009,08:00,0.0,R,ugm-3,29.0,R,ugm-3,29.0,R,ugm-3,22,R,ugm-3
04-01-2009,09:00,0.0,R,ugm-3,21.6,R,ugm-3,21.6,R,ugm-3,20,R,ugm-3
04-01-2009,10:00,1.5,R,ugm-3,26.0,R,ugm-3,28.3,R,ugm-3,8,R,ugm-3
04-01-2009,11:00,2.3,R,ugm-3,24.3,R,ugm-3,27.7,R,ugm-3,12,R,ugm-3
04-01-2009,12:00,3.4,R,ugm-3,24.8,R,ugm-3,30.0,R,ugm-3,10,R,ugm-3
04-01-2009,13:00,9.3,R,ugm-3,30.6,R,ugm-3,44.7,R,ugm-3,8,R,ugm-3
04-01-2009,14:00,8.6,R,ugm-3,32.1,R,ugm-3,45.3,R,ugm-3,8,R,ugm-3
04-01-2009,15:00,5.9,R,ugm-3,30.8,R,ugm-3,39.7,R,ugm-3,12,R,ugm-3
04-01-2009,16:00,3.4,R,ugm-3,29.6,R,ugm-3,34.8,R,ugm-3,8,R,ugm-3
04-01-2009,17:00,4.1,R,ugm-3,35.7,R,ugm-3,42.0,R,ugm-3,4,R,ugm-3
04-01-2009,18:00,25.4,R,ugm-3,34.8,R,ugm-3,73.5,R,ugm-3,2,R,ugm-3
04-01-2009,19:00,37.0,R,ugm-3,35.0,R,ugm-3,91.5,R,ugm-3,2,R,ugm-3
04-01-2009,20:00,39.5,R,ugm-3,34.2,R,ugm-3,94.5,R,ugm-3,2,R,ugm-3
04-01-2009,21:00,40.4,R,ugm-3,28.5,R,ugm-3,90.2,R,ugm-3,2,R,ugm-3
04-01-2009,22:00,33.0,R,ugm-3,41.6,R,ugm-3,92.1,R,ugm-3,2,R,ugm-3
04-01-2009,23:00,32.3,R,ugm-3,47.0,R,ugm-3,96.3,R,ugm-3,2,R,ugm-3
04-01-2009,24:00,32.6,R,ugm-3,43.7,R,ugm-3,93.6,R,ugm-3,2,R,ugm-3
05-01-2009,01:00,36.0,R,ugm-3,40.3,R,ugm-3,95.3,R,ugm-3,2,R,ugm-3
05-01-2009,02:00,,,,,,,,,,2,R,ugm-3
05-01-2009,03:00,39.3,R,ugm-3,42.2,R,ugm-3,102.2,R,ugm-3,2,R,ugm-3
05-01-2009,04:00,34.3,R,ugm-3,37.2,R,ugm-3,89.6,R,ugm-3,4,R,ugm-3
05-01-2009,05:00,1.0,R,ugm-3,18.9,R,ugm-3,20.4,R,ugm-3,20,R,ugm-3
05-01-2009,06:00,1.6,R,ugm-3,7.3,R,ugm-3,9.7,R,ugm-3,36,R,ugm-3
05-01-2009,07:00,1.6,R,ugm-3,8.2,R,ugm-3,10.7,R,ugm-3,34,R,ugm-3
05-01-2009,08:00,1.6,R,ugm-3,18.0,R,ugm-3,20.4,R,ugm-3,26,R,ugm-3
05-01-2009,09:00,2.8,R,ugm-3,34.2,R,ugm-3,38.4,R,ugm-3,16,R,ugm-3
05-01-2009,10:00,5.4,R,ugm-3,33.4,R,ugm-3,41.6,R,ugm-3,20,R,ugm-3
05-01-2009,11:00,6.6,R,ugm-3,27.3,R,ugm-3,37.4,R,ugm-3,30,R,ugm-3
05-01-2009,12:00,6.3,R,ugm-3,21.8,R,ugm-3,31.3,R,ugm-3,38,R,ugm-3
05-01-2009,13:00,4.1,R,ugm-3,14.7,R,ugm-3,21.0,R,ugm-3,46,R,ugm-3
05-01-2009,14:00,4.0,R,ugm-3,14.9,R,ugm-3,21.0,R,ugm-3,46,R,ugm-3
05-01-2009,15:00,3.0,R,ugm-3,15.7,R,ugm-3,20.2,R,ugm-3,44,R,ugm-3
05-01-2009,16:00,1.9,R,ugm-3,21.6,R,ugm-3,24.4,R,ugm-3,38,R,ugm-3
05-01-2009,17:00,1.9,R,ugm-3,42.0,R,ugm-3,44.9,R,ugm-3,16,R,ugm-3
05-01-2009,18:00,1.6,R,ugm-3,43.9,R,ugm-3,46.4,R,ugm-3,12,R,ugm-3
05-01-2009,19:00,18.6,R,ugm-3,56.5,R,ugm-3,85.0,R,ugm-3,4,R,ugm-3
05-01-2009,20:00,17.9,R,ugm-3,59.2,R,ugm-3,86.5,R,ugm-3,2,R,ugm-3
05-01-2009,21:00,11.4,R,ugm-3,56.9,R,ugm-3,74.3,R,ugm-3,2,R,ugm-3
05-01-2009,22:00,25.4,R,ugm-3,55.8,R,ugm-3,94.5,R,ugm-3,2,R,ugm-3
05-01-2009,23:00,11.9,R,ugm-3,49.5,R,ugm-3,67.6,R,ugm-3,2,R,ugm-3
05-01-2009,24:00,17.6,R,ugm-3,49.5,R,ugm-3,76.4,R,ugm-3,2,R,ugm-3
06-01-2009,01:00,3.6,R,ugm-3,46.4,R,ugm-3,52.0,R,ugm-3,6,R,ugm-3
06-01-2009,02:00,,,,,,,,,,12,R,ugm-3
06-01-2009,03:00,1.1,R,ugm-3,35.5,R,ugm-3,37.2,R,ugm-3,8,R,ugm-3
06-01-2009,04:00,29.0,R,ugm-3,44.9,R,ugm-3,89.2,R,ugm-3,2,R,ugm-3
06-01-2009,05:00,31.8,R,ugm-3,48.3,R,ugm-3,96.8,R,ugm-3,2,R,ugm-3
06-01-2009,06:00,19.1,R,ugm-3,44.9,R,ugm-3,74.1,R,ugm-3,2,R,ugm-3
06-01-2009,07:00,26.8,R,ugm-3,43.9,R,ugm-3,84.8,R,ugm-3,2,R,ugm-3
06-01-2009,08:00,65.9,R,ugm-3,52.3,R,ugm-3,153.0,R,ugm-3,2,R,ugm-3
06-01-2009,09:00,83.9,R,ugm-3,53.3,R,ugm-3,181.5,R,ugm-3,2,R,ugm-3
06-01-2009,10:00,139.5,R,ugm-3,64.9,R,ugm-3,278.1,R,ugm-3,2,R,ugm-3
06-01-2009,11:00,153.5,R,ugm-3,84.4,R,ugm-3,319.0,R,ugm-3,4,R,ugm-3
06-01-2009,12:00,133.0,R,ugm-3,86.5,R,ugm-3,289.7,R,ugm-3,6,R,ugm-3
06-01-2009,13:00,177.1,R,ugm-3,104.7,R,ugm-3,375.3,R,ugm-3,4,R,ugm-3
06-01-2009,14:00,94.8,R,ugm-3,81.9,R,ugm-3,226.7,R,ugm-3,6,R,ugm-3
06-01-2009,15:00,51.0,R,ugm-3,67.0,R,ugm-3,145.0,R,ugm-3,8,R,ugm-3
06-01-2009,16:00,1.9,R,ugm-3,31.9,R,ugm-3,34.8,R,ugm-3,28,R,ugm-3
06-01-2009,17:00,6.6,R,ugm-3,52.0,R,ugm-3,62.1,R,ugm-3,8,R,ugm-3
06-01-2009,18:00,9.5,R,ugm-3,60.2,R,ugm-3,74.7,R,ugm-3,2,R,ugm-3
06-01-2009,19:00,27.4,R,ugm-3,69.3,R,ugm-3,111.2,R,ugm-3,2,R,ugm-3
06-01-2009,20:00,16.8,R,ugm-3,63.4,R,ugm-3,89.0,R,ugm-3,2,R,ugm-3
06-01-2009,21:00,1.3,R,ugm-3,53.7,R,ugm-3,55.6,R,ugm-3,6,R,ugm-3
06-01-2009,22:00,0.9,R,ugm-3,48.7,R,ugm-3,50.0,R,ugm-3,8,R,ugm-3
06-01-2009,23:00,1.9,R,ugm-3,48.7,R,ugm-3,51.6,R,ugm-3,2,R,ugm-3
06-01-2009,24:00,2.4,R,ugm-3,42.2,R,ugm-3,45.8,R,ugm-3,2,R,ugm-3
07-01-2009,01:00,20.1,R,ugm-3,47.9,R,ugm-3,78.7,R,ugm-3,2,R,ugm-3
07-01-2009,02:00,,,,,,,,,,4,R,ugm-3
07-01-2009,03:00,15.5,R,ugm-3,43.9,R,ugm-3,67.6,R,ugm-3,4,R,ugm-3
07-01-2009,04:00,11.1,R,ugm-3,38.8,R,ugm-3,55.8,R,ugm-3,6,R,ugm-3
07-01-2009,05:00,42.0,R,ugm-3,39.5,R,ugm-3,103.7,R,ugm-3,2,R,ugm-3
07-01-2009,06:00,43.9,R,ugm-3,40.1,R,ugm-3,107.2,R,ugm-3,2,R,ugm-3
07-01-2009,07:00,52.6,R,ugm-3,40.5,R,ugm-3,120.9,R,ugm-3,2,R,ugm-3
07-01-2009,08:00,73.9,R,ugm-3,56.7,R,ugm-3,169.6,R,ugm-3,2,R,ugm-3
07-01-2009,09:00,31.9,R,ugm-3,46.2,R,ugm-3,94.9,R,ugm-3,2,R,ugm-3
07-01-2009,10:00,46.0,R,ugm-3,51.6,R,ugm-3,121.9,R,ugm-3,2,R,ugm-3
07-01-2009,11:00,39.0,R,ugm-3,56.5,R,ugm-3,116.1,R,ugm-3,4,R,ugm-3
07-01-2009,12:00,11.6,R,ugm-3,42.8,R,ugm-3,60.5,R,ugm-3,10,R,ugm-3
07-01-2009,13:00,2.3,R,ugm-3,33.6,R,ugm-3,37.1,R,ugm-3,22,R,ugm-3
07-01-2009,14:00,35.6,R,ugm-3,50.2,R,ugm-3,104.7,R,ugm-3,6,R,ugm-3
07-01-2009,15:00,,,,,,,,,,,,
07-01-2009,16:00,,,,,,,,,,,,
07-01-2009,17:00,38.9,R,ugm-3,52.9,R,ugm-3,112.3,R,ugm-3,0,R,ugm-3
07-01-2009,18:00,56.5,R,ugm-3,55.0,R,ugm-3,141.3,R,ugm-3,0,R,ugm-3
07-01-2009,19:00,66.3,R,ugm-3,54.6,R,ugm-3,155.9,R,ugm-3,0,R,ugm-3
07-01-2009,20:00,61.3,R,ugm-3,55.8,R,ugm-3,149.4,R,ugm-3,2,R,ugm-3
07-01-2009,21:00,42.6,R,ugm-3,49.9,R,ugm-3,115.0,R,ugm-3,2,R,ugm-3
07-01-2009,22:00,29.0,R,ugm-3,47.0,R,ugm-3,91.3,R,ugm-3,2,R,ugm-3
07-01-2009,23:00,19.3,R,ugm-3,46.2,R,ugm-3,75.6,R,ugm-3,2,R,ugm-3
07-01-2009,24:00,22.0,R,ugm-3,44.1,R,ugm-3,77.7,R,ugm-3,2,R,ugm-3
08-01-2009,01:00,15.4,R,ugm-3,39.2,R,ugm-3,62.6,R,ugm-3,0,R,ugm-3
08-01-2009,02:00,,,,,,,,,,2,R,ugm-3
08-01-2009,03:00,16.6,R,ugm-3,40.5,R,ugm-3,65.9,R,ugm-3,2,R,ugm-3
08-01-2009,04:00,22.4,R,ugm-3,41.6,R,ugm-3,75.8,R,ugm-3,0,R,ugm-3
08-01-2009,05:00,14.5,R,ugm-3,37.6,R,ugm-3,59.8,R,ugm-3,2,R,ugm-3
08-01-2009,06:00,13.5,R,ugm-3,35.7,R,ugm-3,56.3,R,ugm-3,2,R,ugm-3
08-01-2009,07:00,20.9,R,ugm-3,36.1,R,ugm-3,68.0,R,ugm-3,2,R,ugm-3
08-01-2009,08:00,33.4,R,ugm-3,41.1,R,ugm-3,92.1,R,ugm-3,2,R,ugm-3
08-01-2009,09:00,31.5,R,ugm-3,39.0,R,ugm-3,87.1,R,ugm-3,2,R,ugm-3
08-01-2009,10:00,26.8,R,ugm-3,36.9,R,ugm-3,77.7,R,ugm-3,2,R,ugm-3
08-01-2009,11:00,31.0,R,ugm-3,46.0,R,ugm-3,93.4,R,ugm-3,4,R,ugm-3
08-01-2009,12:00,36.4,R,ugm-3,48.7,R,ugm-3,104.3,R,ugm-3,2,R,ugm-3
08-01-2009,13:00,39.5,R,ugm-3,50.4,R,ugm-3,110.8,R,ugm-3,4,R,ugm-3
08-01-2009,14:00,30.9,R,ugm-3,47.0,R,ugm-3,94.2,R,ugm-3,4,R,ugm-3
08-01-2009,15:00,34.8,R,ugm-3,49.5,R,ugm-3,102.6,R,ugm-3,4,R,ugm-3
08-01-2009,16:00,35.1,R,ugm-3,47.9,R,ugm-3,101.6,R,ugm-3,2,R,ugm-3
08-01-2009,17:00,62.5,R,ugm-3,54.6,R,ugm-3,150.1,R,ugm-3,2,R,ugm-3
08-01-2009,18:00,98.1,R,ugm-3,58.6,R,ugm-3,208.6,R,ugm-3,2,R,ugm-3
08-01-2009,19:00,108.6,R,ugm-3,61.3,R,ugm-3,227.3,R,ugm-3,2,R,ugm-3
08-01-2009,20:00,49.9,R,ugm-3,57.1,R,ugm-3,133.3,R,ugm-3,2,R,ugm-3
08-01-2009,21:00,24.5,R,ugm-3,52.7,R,ugm-3,90.2,R,ugm-3,2,R,ugm-3
08-01-2009,22:00,16.6,R,ugm-3,47.2,R,ugm-3,72.6,R,ugm-3,2,R,ugm-3
08-01-2009,23:00,11.1,R,ugm-3,46.6,R,ugm-3,63.6,R,ugm-3,2,R,ugm-3
08-01-2009,24:00,12.4,R,ugm-3,43.7,R,ugm-3,62.6,R,ugm-3,2,R,ugm-3
09-01-2009,01:00,11.9,R,ugm-3,39.0,R,ugm-3,57.1,R,ugm-3,0,R,ugm-3
09-01-2009,02:00,,,,,,,,,,0,R,ugm-3
09-01-2009,03:00,0.9,R,ugm-3,26.7,R,ugm-3,28.1,R,ugm-3,6,R,ugm-3
09-01-2009,04:00,0.6,R,ugm-3,22.0,R,ugm-3,22.9,R,ugm-3,10,R,ugm-3
09-01-2009,05:00,0.9,R,ugm-3,17.2,R,ugm-3,18.5,R,ugm-3,14,R,ugm-3
09-01-2009,06:00,0.9,R,ugm-3,21.8,R,ugm-3,23.1,R,ugm-3,10,R,ugm-3
09-01-2009,07:00,3.8,R,ugm-3,32.3,R,ugm-3,38.0,R,ugm-3,4,R,ugm-3
09-01-2009,08:00,16.0,R,ugm-3,42.6,R,ugm-3,67.0,R,ugm-3,0,R,ugm-3
09-01-2009,09:00,24.0,R,ugm-3,42.6,R,ugm-3,79.3,R,ugm-3,2,R,ugm-3
09-01-2009,10:00,23.8,R,ugm-3,44.3,R,ugm-3,80.6,R,ugm-3,2,R,ugm-3
09-01-2009,11:00,3.8,R,ugm-3,30.8,R,ugm-3,36.5,R,ugm-3,12,R,ugm-3
09-01-2009,12:00,2.5,R,ugm-3,21.2,R,ugm-3,25.0,R,ugm-3,20,R,ugm-3
09-01-2009,13:00,2.5,R,ugm-3,19.9,R,ugm-3,23.7,R,ugm-3,26,R,ugm-3
09-01-2009,14:00,1.5,R,ugm-3,16.0,R,ugm-3,18.3,R,ugm-3,30,R,ugm-3
09-01-2009,15:00,3.1,R,ugm-3,22.3,R,ugm-3,27.1,R,ugm-3,22,R,ugm-3
09-01-2009,16:00,18.6,R,ugm-3,42.6,R,ugm-3,71.1,R,ugm-3,6,R,ugm-3
09-01-2009,17:00,36.4,R,ugm-3,55.2,R,ugm-3,110.8,R,ugm-3,2,R,ugm-3
09-01-2009,18:00,47.6,R,ugm-3,57.9,R,ugm-3,130.6,R,ugm-3,2,R,ugm-3
09-01-2009,19:00,90.9,R,ugm-3,70.1,R,ugm-3,209.0,R,ugm-3,2,R,ugm-3
09-01-2009,20:00,137.1,R,ugm-3,80.4,R,ugm-3,289.9,R,ugm-3,2,R,ugm-3
09-01-2009,21:00,76.4,R,ugm-3,64.4,R,ugm-3,181.1,R,ugm-3,2,R,ugm-3
09-01-2009,22:00,40.1,R,ugm-3,53.7,R,ugm-3,115.0,R,ugm-3,2,R,ugm-3
09-01-2009,23:00,22.4,R,ugm-3,49.3,R,ugm-3,83.5,R,ugm-3,2,R,ugm-3
09-01-2009,24:00,26.8,R,ugm-3,52.3,R,ugm-3,93.2,R,ugm-3,2,R,ugm-3
10-01-2009,01:00,38.9,R,ugm-3,55.4,R,ugm-3,114.8,R,ugm-3,2,R,ugm-3
10-01-2009,02:00,,,,,,,,,,2,R,ugm-3
10-01-2009,03:00,13.8,R,ugm-3,54.6,R,ugm-3,75.6,R,ugm-3,2,R,ugm-3
10-01-2009,04:00,7.6,R,ugm-3,51.4,R,ugm-3,63.0,R,ugm-3,0,R,ugm-3
10-01-2009,05:00,4.4,R,ugm-3,46.4,R,ugm-3,53.1,R,ugm-3,2,R,ugm-3
10-01-2009,06:00,11.6,R,ugm-3,44.9,R,ugm-3,62.6,R,ugm-3,2,R,ugm-3
10-01-2009,07:00,1.9,R,ugm-3,39.3,R,ugm-3,42.2,R,ugm-3,2,R,ugm-3
10-01-2009,08:00,1.6,R,ugm-3,38.2,R,ugm-3,40.7,R,ugm-3,4,R,ugm-3
10-01-2009,09:00,3.4,R,ugm-3,36.1,R,ugm-3,41.3,R,ugm-3,6,R,ugm-3
10-01-2009,10:00,4.4,R,ugm-3,31.3,R,ugm-3,38.0,R,ugm-3,10,R,ugm-3
10-01-2009,11:00,6.3,R,ugm-3,28.8,R,ugm-3,38.4,R,ugm-3,16,R,ugm-3
10-01-2009,12:00,9.5,R,ugm-3,28.3,R,ugm-3,42.8,R,ugm-3,16,R,ugm-3
10-01-2009,13:00,6.9,R,ugm-3,25.4,R,ugm-3,35.9,R,ugm-3,18,R,ugm-3
10-01-2009,14:00,2.8,R,ugm-3,23.9,R,ugm-3,28.1,R,ugm-3,22,R,ugm-3
10-01-2009,15:00,1.6,R,ugm-3,22.0,R,ugm-3,24.4,R,ugm-3,24,R,ugm-3
10-01-2009,16:00,0.9,R,ugm-3,22.7,R,ugm-3,24.1,R,ugm-3,22,R,ugm-3
10-01-2009,17:00,0.0,R,ugm-3,28.3,R,ugm-3,28.3,R,ugm-3,18,R,ugm-3
10-01-2009,18:00,0.0,R,ugm-3,24.1,R,ugm-3,24.1,R,ugm-3,20,R,ugm-3
10-01-2009,19:00,0.0,R,ugm-3,24.1,R,ugm-3,24.1,R,ugm-3,18,R,ugm-3
10-01-2009,20:00,0.0,R,ugm-3,21.8,R,ugm-3,21.8,R,ugm-3,20,R,ugm-3
10-01-2009,21:00,0.0,R,ugm-3,19.9,R,ugm-3,19.9,R,ugm-3,24,R,ugm-3
10-01-2009,22:00,0.0,R,ugm-3,17.2,R,ugm-3,17.2,R,ugm-3,26,R,ugm-3
10-01-2009,23:00,0.0,R,ugm-3,15.3,R,ugm-3,15.3,R,ugm-3,26,R,ugm-3
10-01-2009,24:00,0.0,R,ugm-3,10.7,R,ugm-3,10.7,R,ugm-3,32,R,ugm-3
11-01-2009,01:00,0.9,R,ugm-3,8.6,R,ugm-3,9.9,R,ugm-3,36,R,ugm-3
11-01-2009,02:00,,,,,,,,,,42,R,ugm-3
11-01-2009,03:00,0.9,R,ugm-3,6.5,R,ugm-3,7.8,R,ugm-3,44,R,ugm-3
11-01-2009,04:00,0.9,R,ugm-3,4.8,R,ugm-3,6.1,R,ugm-3,52,R,ugm-3
11-01-2009,05:00,0.6,R,ugm-3,4.2,R,ugm-3,5.2,R,ugm-3,50,R,ugm-3
11-01-2009,06:00,0.9,R,ugm-3,3.6,R,ugm-3,5.0,R,ugm-3,52,R,ugm-3
11-01-2009,07:00,0.9,R,ugm-3,2.9,R,ugm-3,4.2,R,ugm-3,56,R,ugm-3
11-01-2009,08:00,0.9,R,ugm-3,2.3,R,ugm-3,3.6,R,ugm-3,58,R,ugm-3
11-01-2009,09:00,0.9,R,ugm-3,4.2,R,ugm-3,5.5,R,ugm-3,56,R,ugm-3
11-01-2009,10:00,0.9,R,ugm-3,3.8,R,ugm-3,5.2,R,ugm-3,56,R,ugm-3
11-01-2009,11:00,0.9,R,ugm-3,7.1,R,ugm-3,8.4,R,ugm-3,52,R,ugm-3
11-01-2009,12:00,0.9,R,ugm-3,9.2,R,ugm-3,10.5,R,ugm-3,54,R,ugm-3
11-01-2009,13:00,0.9,R,ugm-3,7.1,R,ugm-3,8.4,R,ugm-3,60,R,ugm-3
11-01-2009,14:00,0.9,R,ugm-3,3.8,R,ugm-3,5.2,R,ugm-3,64,R,ugm-3
11-01-2009,15:00,0.9,R,ugm-3,3.4,R,ugm-3,4.8,R,ugm-3,64,R,ugm-3
11-01-2009,16:00,0.9,R,ugm-3,3.8,R,ugm-3,5.2,R,ugm-3,66,R,ugm-3
11-01-2009,17:00,0.9,R,ugm-3,5.5,R,ugm-3,6.9,R,ugm-3,62,R,ugm-3
11-01-2009,18:00,0.9,R,ugm-3,3.8,R,ugm-3,5.2,R,ugm-3,62,R,ugm-3
11-01-2009,19:00,0.6,R,ugm-3,6.1,R,ugm-3,7.1,R,ugm-3,60,R,ugm-3
11-01-2009,20:00,0.9,R,ugm-3,3.8,R,ugm-3,5.2,R,ugm-3,60,R,ugm-3
11-01-2009,21:00,0.9,R,ugm-3,3.4,R,ugm-3,4.8,R,ugm-3,56,R,ugm-3
11-01-2009,22:00,0.9,R,ugm-3,2.9,R,ugm-3,4.2,R,ugm-3,56,R,ugm-3
11-01-2009,23:00,0.9,R,ugm-3,2.9,R,ugm-3,4.2,R,ugm-3,52,R,ugm-3
11-01-2009,24:00,0.9,R,ugm-3,1.9,R,ugm-3,3.2,R,ugm-3,54,R,ugm-3
12-01-2009,01:00,0.9,R,ugm-3,1.3,R,ugm-3,2.7,R,ugm-3,52,R,ugm-3
12-01-2009,02:00,,,,,,,,,,58,R,ugm-3
12-01-2009,03:00,0.6,R,ugm-3,2.1,R,ugm-3,3.1,R,ugm-3,58,R,ugm-3
12-01-2009,04:00,0.6,R,ugm-3,1.7,R,ugm-3,2.7,R,ugm-3,64,R,ugm-3
12-01-2009,05:00,0.9,R,ugm-3,3.2,R,ugm-3,4.6,R,ugm-3,62,R,ugm-3
12-01-2009,06:00,0.9,R,ugm-3,6.1,R,ugm-3,7.4,R,ugm-3,58,R,ugm-3
12-01-2009,07:00,0.9,R,ugm-3,12.0,R,ugm-3,13.4,R,ugm-3,52,R,ugm-3
12-01-2009,08:00,0.6,R,ugm-3,22.0,R,ugm-3,22.9,R,ugm-3,42,R,ugm-3
12-01-2009,09:00,0.9,R,ugm-3,30.0,R,ugm-3,31.3,R,ugm-3,36,R,ugm-3
12-01-2009,10:00,0.9,R,ugm-3,26.9,R,ugm-3,28.3,R,ugm-3,36,R,ugm-3
12-01-2009,11:00,3.8,R,ugm-3,36.5,R,ugm-3,42.2,R,ugm-3,30,R,ugm-3
12-01-2009,12:00,3.8,R,ugm-3,30.0,R,ugm-3,35.7,R,ugm-3,32,R,ugm-3
12-01-2009,13:00,4.5,R,ugm-3,32.1,R,ugm-3,39.0,R,ugm-3,26,R,ugm-3
12-01-2009,14:00,3.9,R,ugm-3,39.2,R,ugm-3,45.1,R,ugm-3,24,R,ugm-3
12-01-2009,15:00,2.9,R,ugm-3,38.4,R,ugm-3,42.8,R,ugm-3,24,R,ugm-3
12-01-2009,16:00,2.8,R,ugm-3,44.7,R,ugm-3,48.9,R,ugm-3,16,R,ugm-3
12-01-2009,17:00,0.9,R,ugm-3,44.7,R,ugm-3,46.0,R,ugm-3,22,R,ugm-3
12-01-2009,18:00,0.9,R,ugm-3,55.8,R,ugm-3,57.1,R,ugm-3,10,R,ugm-3
12-01-2009,19:00,31.3,R,ugm-3,67.2,R,ugm-3,115.0,R,ugm-3,2,R,ugm-3
12-01-2009,20:00,34.5,R,ugm-3,65.1,R,ugm-3,117.8,R,ugm-3,2,R,ugm-3
12-01-2009,21:00,9.8,R,ugm-3,59.2,R,ugm-3,74.1,R,ugm-3,4,R,ugm-3
12-01-2009,22:00,0.5,R,ugm-3,37.2,R,ugm-3,38.0,R,ugm-3,20,R,ugm-3
12-01-2009,23:00,0.5,R,ugm-3,28.7,R,ugm-3,29.4,R,ugm-3,30,R,ugm-3
12-01-2009,24:00,0.5,R,ugm-3,34.8,R,ugm-3,35.5,R,ugm-3,30,R,ugm-3
13-01-2009,01:00,0.6,R,ugm-3,32.9,R,ugm-3,33.8,R,ugm-3,32,R,ugm-3
13-01-2009,02:00,,,,,,,,,,42,R,ugm-3
13-01-2009,03:00,0.6,R,ugm-3,12.6,R,ugm-3,13.6,R,ugm-3,42,R,ugm-3
13-01-2009,04:00,0.6,R,ugm-3,16.2,R,ugm-3,17.2,R,ugm-3,34,R,ugm-3
13-01-2009,05:00,0.6,R,ugm-3,19.9,R,ugm-3,20.8,R,ugm-3,28,R,ugm-3
13-01-2009,06:00,0.9,R,ugm-3,26.0,R,ugm-3,27.3,R,ugm-3,22,R,ugm-3
13-01-2009,07:00,3.9,R,ugm-3,51.6,R,ugm-3,57.5,R,ugm-3,4,R,ugm-3
13-01-2009,08:00,17.3,R,ugm-3,65.9,R,ugm-3,92.3,R,ugm-3,0,R,ugm-3
13-01-2009,09:00,12.0,R,ugm-3,65.7,R,ugm-3,84.0,R,ugm-3,4,R,ugm-3
13-01-2009,10:00,30.0,R,ugm-3,75.1,R,ugm-3,120.9,R,ugm-3,4,R,ugm-3
13-01-2009,11:00,16.0,R,ugm-3,62.6,R,ugm-3,87.1,R,ugm-3,8,R,ugm-3
13-01-2009,12:00,14.8,R,ugm-3,58.4,R,ugm-3,81.0,R,ugm-3,12,R,ugm-3
13-01-2009,13:00,3.1,R,ugm-3,24.4,R,ugm-3,29.2,R,ugm-3,42,R,ugm-3
13-01-2009,14:00,1.9,R,ugm-3,15.7,R,ugm-3,18.5,R,ugm-3,54,R,ugm-3
13-01-2009,15:00,2.9,R,ugm-3,30.8,R,ugm-3,35.1,R,ugm-3,40,R,ugm-3
13-01-2009,16:00,2.5,R,ugm-3,38.0,R,ugm-3,41.8,R,ugm-3,30,R,ugm-3
13-01-2009,17:00,5.4,R,ugm-3,59.4,R,ugm-3,67.6,R,ugm-3,6,R,ugm-3
13-01-2009,18:00,25.9,R,ugm-3,73.5,R,ugm-3,113.1,R,ugm-3,0,R,ugm-3
13-01-2009,19:00,21.4,R,ugm-3,70.3,R,ugm-3,102.9,R,ugm-3,2,R,ugm-3
13-01-2009,20:00,4.1,R,ugm-3,62.5,R,ugm-3,68.8,R,ugm-3,4,R,ugm-3
13-01-2009,21:00,1.9,R,ugm-3,60.5,R,ugm-3,63.4,R,ugm-3,6,R,ugm-3
13-01-2009,22:00,0.9,R,ugm-3,51.4,R,ugm-3,52.7,R,ugm-3,10,R,ugm-3
13-01-2009,23:00,0.9,R,ugm-3,51.6,R,ugm-3,52.9,R,ugm-3,6,R,ugm-3
13-01-2009,24:00,8.9,R,ugm-3,55.2,R,ugm-3,68.8,R,ugm-3,4,R,ugm-3
14-01-2009,01:00,,,,,,,,,,,,
14-01-2009,02:00,,,,,,,,,,2,R,ugm-3
14-01-2009,03:00,29.0,R,ugm-3,56.2,R,ugm-3,100.5,R,ugm-3,2,R,ugm-3
14-01-2009,04:00,36.9,R,ugm-3,46.2,R,ugm-3,102.6,R,ugm-3,2,R,ugm-3
14-01-2009,05:00,39.9,R,ugm-3,41.6,R,ugm-3,102.6,R,ugm-3,0,R,ugm-3
14-01-2009,06:00,29.0,R,ugm-3,37.6,R,ugm-3,81.9,R,ugm-3,0,R,ugm-3
14-01-2009,07:00,21.8,R,ugm-3,37.2,R,ugm-3,70.5,R,ugm-3,0,R,ugm-3
14-01-2009,08:00,33.9,R,ugm-3,44.1,R,ugm-3,95.9,R,ugm-3,0,R,ugm-3
14-01-2009,09:00,28.1,R,ugm-3,46.4,R,ugm-3,89.4,R,ugm-3,2,R,ugm-3
14-01-2009,10:00,25.3,R,ugm-3,43.2,R,ugm-3,81.7,R,ugm-3,4,R,ugm-3
14-01-2009,11:00,,,,,,,,,,,,
14-01-2009,12:00,,,,,,,,,,,,
14-01-2009,13:00,,,,,,,,,,,,
14-01-2009,14:00,,,,,,,,,,34,R,ugm-3
14-01-2009,15:00,3.9,R,ugm-3,34.0,R,ugm-3,39.9,R,ugm-3,28,R,ugm-3
14-01-2009,16:00,5.1,R,ugm-3,50.6,R,ugm-3,58.4,R,ugm-3,16,R,ugm-3
14-01-2009,17:00,5.9,R,ugm-3,62.3,R,ugm-3,71.2,R,ugm-3,6,R,ugm-3
14-01-2009,18:00,2.9,R,ugm-3,59.6,R,ugm-3,64.0,R,ugm-3,6,R,ugm-3
14-01-2009,19:00,1.1,R,ugm-3,48.7,R,ugm-3,50.4,R,ugm-3,12,R,ugm-3
14-01-2009,20:00,0.6,R,ugm-3,32.5,R,ugm-3,33.4,R,ugm-3,26,R,ugm-3
14-01-2009,21:00,0.5,R,ugm-3,29.2,R,ugm-3,30.0,R,ugm-3,26,R,ugm-3
14-01-2009,22:00,0.9,R,ugm-3,25.4,R,ugm-3,26.7,R,ugm-3,26,R,ugm-3
14-01-2009,23:00,0.6,R,ugm-3,23.7,R,ugm-3,24.6,R,ugm-3,28,R,ugm-3
14-01-2009,24:00,0.6,R,ugm-3,19.1,R,ugm-3,20.1,R,ugm-3,32,R,ugm-3
15-01-2009,01:00,1.1,R,ugm-3,15.1,R,ugm-3,16.8,R,ugm-3,32,R,ugm-3
15-01-2009,02:00,,,,,,,,,,36,R,ugm-3
15-01-2009,03:00,1.1,R,ugm-3,9.2,R,ugm-3,10.9,R,ugm-3,40,R,ugm-3
15-01-2009,04:00,1.3,R,ugm-3,5.9,R,ugm-3,7.8,R,ugm-3,44,R,ugm-3
15-01-2009,05:00,1.5,R,ugm-3,5.7,R,ugm-3,8.0,R,ugm-3,42,R,ugm-3
15-01-2009,06:00,1.3,R,ugm-3,5.7,R,ugm-3,7.6,R,ugm-3,42,R,ugm-3
15-01-2009,07:00,1.5,R,ugm-3,7.4,R,ugm-3,9.7,R,ugm-3,42,R,ugm-3
15-01-2009,08:00,1.6,R,ugm-3,10.9,R,ugm-3,13.4,R,ugm-3,40,R,ugm-3
15-01-2009,09:00,1.5,R,ugm-3,12.6,R,ugm-3,14.9,R,ugm-3,38,R,ugm-3
15-01-2009,10:00,,,,,,,,,,,,
15-01-2009,11:00,,,,,,,,,,,,
15-01-2009,12:00,3.0,R,ugm-3,16.0,R,ugm-3,20.6,R,ugm-3,34,R,ugm-3
15-01-2009,13:00,2.3,R,ugm-3,11.7,R,ugm-3,15.1,R,ugm-3,40,R,ugm-3
15-01-2009,14:00,2.9,R,ugm-3,14.7,R,ugm-3,19.1,R,ugm-3,38,R,ugm-3
15-01-2009,15:00,2.5,R,ugm-3,17.0,R,ugm-3,20.8,R,ugm-3,34,R,ugm-3
15-01-2009,16:00,2.5,R,ugm-3,16.2,R,ugm-3,20.1,R,ugm-3,34,R,ugm-3
15-01-2009,17:00,2.0,R,ugm-3,17.2,R,ugm-3,20.2,R,ugm-3,34,R,ugm-3
15-01-2009,18:00,1.9,R,ugm-3,17.2,R,ugm-3,20.1,R,ugm-3,34,R,ugm-3
15-01-2009,19:00,1.6,R,ugm-3,21.8,R,ugm-3,24.3,R,ugm-3,30,R,ugm-3
15-01-2009,20:00,1.9,R,ugm-3,20.4,R,ugm-3,23.3,R,ugm-3,32,R,ugm-3
15-01-2009,21:00,1.6,R,ugm-3,15.7,R,ugm-3,18.1,R,ugm-3,34,R,ugm-3
15-01-2009,22:00,2.0,R,ugm-3,13.8,R,ugm-3,16.8,R,ugm-3,34,R,ugm-3
15-01-2009,23:00,1.9,R,ugm-3,11.5,R,ugm-3,14.3,R,ugm-3,34,R,ugm-3
15-01-2009,24:00,1.9,R,ugm-3,10.1,R,ugm-3,13.0,R,ugm-3,34,R,ugm-3
16-01-2009,01:00,0.0,R,ugm-3,12.6,R,ugm-3,12.6,R,ugm-3,34,R,ugm-3
16-01-2009,02:00,,,,,,,,,,34,R,ugm-3
16-01-2009,03:00,0.0,R,ugm-3,11.7,R,ugm-3,11.7,R,ugm-3,36,R,ugm-3
16-01-2009,04:00,0.0,R,ugm-3,10.3,R,ugm-3,10.3,R,ugm-3,36,R,ugm-3
16-01-2009,05:00,0.0,R,ugm-3,10.3,R,ugm-3,10.3,R,ugm-3,34,R,ugm-3
16-01-2009,06:00,0.0,R,ugm-3,13.9,R,ugm-3,13.9,R,ugm-3,28,R,ugm-3
16-01-2009,07:00,0.0,R,ugm-3,18.9,R,ugm-3,18.9,R,ugm-3,24,R,ugm-3
16-01-2009,08:00,0.5,R,ugm-3,26.7,R,ugm-3,27.5,R,ugm-3,18,R,ugm-3
16-01-2009,09:00,0.6,R,ugm-3,30.4,R,ugm-3,31.3,R,ugm-3,18,R,ugm-3
16-01-2009,10:00,2.1,R,ugm-3,22.2,R,ugm-3,25.4,R,ugm-3,24,R,ugm-3
16-01-2009,11:00,3.1,R,ugm-3,19.3,R,ugm-3,24.1,R,ugm-3,28,R,ugm-3
16-01-2009,12:00,2.9,R,ugm-3,15.3,R,ugm-3,19.7,R,ugm-3,38,R,ugm-3